Regional Weather Roundup
Issued by NWS Cleveland, OH

Home | Current Version | Previous Version | Graphics & Text | Print | Product List | Glossary On
Versions: 1 2 3 4 5 6 7 8 9 10 11 12 13 14 15 16 17 18 19 20 21 22 23 24 25 26 27 28 29 30 31 32 33 34 35 36 37 38 39 40 41 42 43 44 45 46 47 48 49 50
000
ASUS41 KCLE 281710
RWRCLE
OHIO REGIONAL WEATHER ROUNDUP
NATIONAL WEATHER SERVICE WILMINGTON, OH
100 PM EDT MON JUL 28 2014

NOTE: "FAIR" INDICATES FEW OR NO CLOUDS BELOW 12,000 FEET WITH NO
SIGNIFICANT WEATHER AND/OR OBSTRUCTIONS TO VISIBILITY.

OHZ001>008-015>018-024>027-034-035-043-044-281800-
   NORTHWEST OHIO

CITY           SKY/WX    TMP DP  RH WIND       PRES   REMARKS
DEFIANCE       MOSUNNY   73  55  53 NW15      29.94S
FINDLAY        MOSUNNY   72  54  53 NW15      29.91S
TOLEDO EXPRESS PTSUNNY   73  53  49 NW13G20   29.92R
TOLEDO METCALF MOSUNNY   72  52  49 NW15      29.93R
LIMA           MOSUNNY   71  59  65 NW12      29.93S
$$

OHZ009>014-019>023-028>033-038-089-281800-
   NORTHEAST OHIO

CITY           SKY/WX    TMP DP  RH WIND       PRES   REMARKS
CLE-HOPKINS    PTSUNNY   67  56  67 NW24G31   29.87R
CLE-LAKEFRONT  CLOUDY    67  58  72 NW23G32   29.83R
CUY CO. ARPT   CLOUDY    61  61 100 NW12G23   29.84R
LORAIN-ELYRIA  PTSUNNY   70  58  65 N14G30    29.88R
ASHTABULA      LGT RAIN  62  59  90 N8G17     29.80R
AKRON-CANTON   LGT RAIN  65  56  72 NW13G28   29.83R
WOOSTER        CLOUDY    68  57  68 N16G28    29.87R
MANSFIELD      MOSUNNY   69  55  60 N22G28    29.90R
YOUNGSTOWN     LGT RAIN  64  61  88 NW20G30   29.79R
$$

OHZ042-051>053-060>062-070>072-077>081-281800-
  SOUTHWEST OHIO

CITY           SKY/WX    TMP DP  RH WIND       PRES   REMARKS
CINC-COVINGTON CLOUDY    68  59  73 NW12      29.97S
CINC-LUNKEN    CLOUDY    70  59  68 VRB7      29.96S
HAMILTON       CLOUDY    71  60  68 NW9       29.96S
DAYTON         PTSUNNY   71  59  65 NW16G23   29.95R
WRIGHT-PAT AFB PTSUNNY   69  60  73 N8        29.94R
DAYTON GENERAL CLOUDY    70  59  68 NW10      29.94S
WILMINGTON     CLOUDY    69  59  70 W8        29.94S
$$

OHZ036-037-039>041-045>050-054>059-063>069-073>076-082>088-281800-
  CENTRAL AND SOUTHEAST OHIO

CITY           SKY/WX    TMP DP  RH WIND       PRES   REMARKS
COLUMBUS       CLOUDY    71  58  63 NW14      29.89R
OSU AIRPORT    CLOUDY    68  58  70 NW17      29.90R
BOLTON FIELD   CLOUDY    68  61  77 W12       29.91R
RICKENBACK AFB CLOUDY    72  56  55 NW10      29.90R
NEWARK         PTSUNNY   70  61  73 NW7G21    29.88R
MARION         PTSUNNY   70  55  59 NW17      29.91R
LANCASTER      CLOUDY    70  59  68 NW9G18    29.89S
ZANESVILLE     NOT AVBL
NEW PHILLY     PTSUNNY   70  59  68 NW15G24   29.84R
$$


USA.gov is the U.S. government's official web portal to all federal, state and local government web resources and services.